{"data":{"norad_id":65039,"intl_designator":"2025-161AA","name":"STARLINK-34721","alt_names":[],"object_type":"PAYLOAD","status":"ACTIVE","operator":null,"country":"US","launch_date":"2025-07-30","launch_site_code":"AFWTR","launch_vehicle":null,"mission":null,"orbit_class":"UNKNOWN","rcs_meters":null,"size_class":null,"mass_kg":null,"dimensions":null,"purposes":["comms"],"wikipedia_slug":null,"has_3d_model":false,"image_url":null,"decayed_at":null,"tle_current":{"epoch":"2026-05-24T21:45:59.262624Z","epoch_age_seconds":79146,"freshness":"FRESH","line1":"1 65039U 25161AA  26144.90693591  .00039786  00000+0  13554-2 0  9999","line2":"2 65039  53.1623 299.8500 0014071  86.6993 273.5618 15.29941763 45909","mean_motion":15.29941763,"eccentricity":0.0014071,"inclination_deg":53.1623,"raan_deg":299.85,"arg_perigee_deg":86.6993,"mean_anomaly_deg":273.5618,"bstar":0.0013554,"rev_number":4590,"period_min":94.121229632712,"perigee_km":466.34179021274,"apogee_km":485.63066379818,"semimajor_km":6854.1232270055,"source":"CELESTRAK","updated_at":"2026-05-25T13:38:20.673579Z"}}}